#timestamp,LO_Frequency,Hit,StdDev 
1538758815.4,286047002.5,N
1538758835.2,286047001.5,N
1538758855.0,286047001.8,N
1538758856.0,286047001.8,N
1538758875.8,286047004.4,Y
1538758895.6,286047000.6,P
1538758915.5,286047000.9,N
1538758935.3,286046998.7,N
1538758955.1,286046998.5,N
1538758975.9,286046998.4,N
1538758995.7,286046998.6,N
1538759015.6,286047001.1,N
1538759035.4,286047001.1,N
1538759055.2,286046998.7,N
1538759075.1,286047001.2,N
1538759076.0,286047001.2,N
1538759095.8,286046998.4,N
1538759115.6,286046998.5,N
1538759135.5,286046998.1,N
1538759155.3,286046998.3,N
1538759175.2,286046999.6,N
1538759195.9,286046999.2,N
1538759215.7,286046999.5,N
1538759235.6,286046996.5,N
1538759255.4,286046999.6,N
1538759275.2,286046999.1,N
1538759295.1,286046996.7,N
1538759296.0,286046996.7,N
1538759315.8,286046999.1,N
1538759335.7,286046999.5,N
1538759355.5,286046996.5,N
1538759375.3,286046999.5,N
1538759395.2,286046996.7,N
1538759415.9,286046997.3,N
1538759435.7,286046996.8,N
1538759455.6,286046997.4,N
1538759475.4,286046997.1,N
1538759495.3,286046997.8,N
1538759515.1,286046997.7,N
1538759516.0,286046997.7,N
1538759535.8,286046995.2,Y
1538759555.7,286046997.2,P
1538759575.5,286046997.0,P
1538759595.3,286046998.8,N
1538759615.2,286046999.1,N
1538759635.0,286046997.0,Y
1538759635.9,286046997.0,P
1538759655.8,286046998.2,P
1538759675.6,286047001.2,N
1538759695.4,286046998.6,N
1538759715.3,286047000.8,N
1538759735.1,286047001.0,N
1538759755.8,286046998.6,N
1538759775.7,286046998.6,N
1538759795.5,286046998.9,N
1538759815.4,286046998.6,N
1538759835.2,286046998.5,N
1538759855.0,286046998.7,N
1538759855.9,286046998.7,N
1538759875.8,286047000.9,N
1538759895.6,286046999.7,N
1538759915.4,286046999.9,N
1538759935.3,286047000.6,N
1538759955.1,286046998.6,N
1538759975.9,286046998.3,N
1538759995.7,286047001.2,N
1538760015.5,286046998.8,N
1538760035.4,286046999.4,N
1538760055.2,286046999.2,N
1538760075.0,286046996.8,N
1538760075.9,286046996.8,N
1538760095.8,286047006.8,Y
1538760115.6,286047011.1,P
1538760135.5,286047011.3,N
1538760155.3,286047010.0,N
1538760175.1,286047007.5,N
1538760195.9,286047005.3,N
1538760215.7,286047003.0,N
1538760235.5,286047001.6,N
1538760255.4,286047001.9,N
1538760275.2,286047000.1,N
1538760295.1,286047002.6,N
1538760296.0,286047002.6,N
1538760315.8,286046999.8,N
1538760335.6,286046999.9,N
1538760355.5,286047000.6,N
1538760375.3,286047000.2,N
1538760395.1,286046999.9,N
1538760415.9,286046999.9,N
1538760435.7,286047000.7,N
1538760455.6,286046998.4,N
1538760475.4,286046998.7,N
1538760495.2,286047001.1,N
1538760515.1,286046998.5,N
1538760516.0,286046998.5,N
1538760535.8,286046999.3,N
1538760555.7,286046999.1,N
1538760575.5,286046998.7,N
1538760595.3,286046998.5,N
1538760615.2,286046998.3,N
1538760635.0,286046998.9,N
1538760635.9,286046998.9,N
1538760655.8,286046998.7,N
1538760675.6,286046998.6,N
1538760695.4,286046999.0,N
1538760715.3,286047001.0,N
1538760735.1,286047000.7,N
1538760755.8,286046998.8,N
1538760775.7,286046999.0,N
1538760795.5,286046999.1,N
1538760815.4,286046999.5,N
1538760835.2,286046996.7,N
1538760855.0,286046996.7,N
1538760855.9,286046996.7,Y
1538760875.8,286047000.6,P
1538760895.6,286047000.9,N
1538760915.5,286047002.7,P
1538760935.3,286047000.6,N
1538760955.1,286047000.4,N
1538760975.9,286047000.6,N
1538760995.7,286047000.7,N
1538761015.6,286047000.9,N
1538761035.4,286047000.5,N
1538761055.2,286047000.4,N
1538761075.1,286047000.6,N
1538761076.0,286047000.6,N
1538761095.8,286047000.6,N
1538761115.7,286046998.5,N
1538761135.5,286047001.1,N
1538761155.3,286047001.1,N
1538761175.2,286046998.2,N
1538761195.0,286047001.0,N
1538761195.9,286047001.0,N
1538761215.8,286047000.2,N
1538761235.6,286047000.2,N
1538761255.4,286047000.0,N
1538761275.3,286046999.9,N
1538761295.4,286047002.1,N
1538761315.2,286047000.4,N
1538761335.0,286047000.9,N
1538761335.9,286047000.9,N
1538761355.8,286046999.9,N
1538761375.6,286047000.4,N
1538761395.5,286047002.8,Y
1538761415.3,286047000.9,P
1538761435.1,286047000.4,N
1538761455.9,286047001.2,P
1538761475.7,286046998.1,Y
1538761495.5,286046999.3,P
1538761515.4,286046998.5,N
1538761535.2,286046998.2,N
1538761555.1,286046998.4,N
1538761556.0,286046998.4,N
1538761575.8,286046999.3,N
1538761595.6,286047001.2,N
1538761615.5,286046996.9,N
1538761635.3,286046998.9,N
1538761655.2,286046998.1,N
1538761675.9,286047000.8,N
1538761695.7,286047001.1,N
1538761715.6,286046998.7,N
1538761735.4,286046998.3,N
1538761755.2,286046998.9,N
1538761775.1,286046998.5,N
1538761776.0,286046998.5,N
1538761795.8,286046998.7,N
1538761815.7,286046998.5,N
1538761835.5,286046998.8,N
1538761855.3,286046998.8,N
1538761875.2,286046998.6,N
1538761895.0,286046999.2,N
1538761895.9,286046999.2,N
1538761915.8,286046996.6,Y
1538761935.6,286047001.0,P
1538761955.4,286046998.1,N
1538761975.3,286047000.0,N
1538761995.1,286047002.6,N
1538762015.8,286047000.2,N
1538762035.7,286047002.4,N
1538762055.5,286047000.1,N
1538762075.4,286047002.3,N
1538762095.2,286047000.1,N
1538762115.0,286047002.8,N
1538762115.9,286047002.8,N
1538762135.8,286047001.6,N
1538762155.6,286047003.7,N
1538762175.4,286047003.1,N
1538762195.3,286047004.0,N
1538762215.1,286047004.0,N
1538762235.9,286047004.2,N
1538762255.7,286047002.2,N
1538762275.5,286047002.7,N
1538762295.4,286047002.0,N
1538762315.2,286046999.7,N
1538762335.0,286046999.7,N
1538762335.9,286046999.7,N
1538762355.8,286047002.4,N
1538762375.6,286047003.2,N
1538762395.5,286047005.9,Y
